Location: Waco, TX
(31.5480°N, 97.1670°W)
Time: 15:52:13
(UTC-05:00)

ISS - Pass Details

Date: 15 September 2019
Orbit: 411 x 421 km, 51.6° (Epoch: 17 September)

Event Time Altitude Azimuth Distance (km) Brightness Sun altitude
Rises 22:55:06 0° 263° (W) 2,332 - -40.8°
Reaches altitude 10° 22:57:50 10° 288° (WNW) 1,474 - -41.2°
Maximum altitude 22:59:51 15° 326° (NW) 1,201 - -41.6°
Drops below altitude 10° 23:01:54 10° 4° (N) 1,477 - -41.9°
Sets 23:04:39 0° 28° (NNE) 2,342 - -42.4°
